Theta_e
314 315 315 315 316 316 315 316 316 316 316 316 318 318 319 319 318 324 329 332 339 334 332 350 351 351 350 352 348 338 339 343 341 339 336 336 335 331 326 318 316 316 317 317
314 317 316 315 314 314 315 316 316 316 315 315 317 317 318 319 318 319 326 330 334 339 338 345 352 352 351 352 352 341 340 344 341 340 338 336 335 333 327 319 317 316 317 317
317 316 316 313 314 314 315 316 316 316 316 315 316 318 318 319 318 318 319 322 327 332 338 345 350 351 352 352 352 350 342 344 343 342 343 342 336 333 328 320 318 317 318 318
314 315 314 314 315 315 316 314 315 316 316 318 316 318 319 319 319 320 319 321 324 329 331 337 340 350 352 350 352 352 349 345 345 345 345 344 336 331 328 319 319 317 318 318
317 314 313 315 316 315 316 315 315 316 317 317 318 318 319 317 319 320 321 320 322 325 328 330 335 340 349 351 351 352 352 349 346 346 347 344 336 330 328 319 319 318 318 318
315 314 314 316 316 314 315 316 316 315 317 319 319 318 319 320 320 321 321 320 320 322 326 331 330 336 343 347 348 348 338 350 348 347 348 348 340 329 327 319 319 319 318 319
317 317 317 317 318 316 316 318 319 319 319 320 319 318 319 320 320 321 322 318 317 317 321 322 327 338 337 338 343 346 347 349 350 348 350 349 344 329 328 318 319 319 319 319
318 319 315 316 317 320 319 319 319 319 319 319 317 319 320 322 322 322 322 322 322 321 320 319 327 335 340 334 335 338 345 347 350 349 350 350 344 331 328 320 317 318 318 319
316 317 313 315 314 315 320 319 318 320 318 319 319 319 319 324 324 322 323 323 323 323 323 322 318 327 337 340 338 338 342 345 348 350 351 351 344 331 328 320 317 318 319 319
310 313 312 311 313 313 317 314 322 320 323 321 320 320 322 324 323 321 321 319 320 322 324 324 323 320 326 337 338 339 341 343 343 350 351 351 344 333 329 319 317 319 320 319
305 310 311 310 310 311 313 316 316 319 321 323 321 321 322 321 319 319 318 318 318 320 323 325 325 323 322 327 337 337 339 341 342 346 349 347 344 333 329 318 318 319 321 322
303 308 309 308 307 307 308 308 310 320 322 321 322 323 314 315 316 317 315 316 317 318 321 325 326 324 321 320 333 337 335 337 340 341 348 349 344 334 326 318 319 320 322 324
302 305 302 303 309 309 308 305 305 309 313 318 324 323 313 311 313 312 313 313 316 318 321 324 327 326 324 317 327 335 334 335 335 335 339 344 340 335 323 319 319 321 322 325
304 305 303 301 303 306 303 304 302 304 308 315 316 318 316 313 310 310 310 312 315 318 322 322 324 327 328 322 325 330 331 332 332 333 333 337 339 334 322 319 319 321 324 324
303 303 302 302 302 302 301 301 302 302 303 304 307 307 309 310 306 305 309 310 315 318 321 322 321 322 325 328 325 327 329 329 330 331 333 336 339 332 323 319 320 322 324 324
302 303 302 303 303 302 302 302 302 302 303 302 303 303 304 303 305 306 309 310 313 316 320 322 322 320 321 324 329 328 326 327 327 328 328 329 332 331 323 319 321 322 324 325
303 303 302 303 302 302 303 303 303 303 303 303 302 303 304 304 305 307 307 306 308 313 317 320 321 320 320 320 322 328 329 328 327 328 328 328 328 326 322 321 322 324 325 325
304 303 303 303 302 303 303 302 303 303 303 304 303 304 304 303 303 303 303 304 306 311 316 317 319 320 321 321 320 324 329 329 329 329 328 328 327 324 322 323 325 326 325 322
301 303 303 304 304 303 302 303 303 304 304 305 304 304 303 303 303 303 303 304 306 309 314 316 315 315 317 321 321 323 326 329 328 329 329 327 326 325 323 325 326 325 322 321
300 302 304 302 304 304 303 304 303 303 305 304 304 305 304 304 305 305 304 304 305 306 308 315 315 316 316 317 321 321 322 324 328 329 328 329 327 326 326 327 326 325 322 324
303 302 303 304 304 304 304 304 303 304 305 305 305 306 307 307 306 305 305 307 310 309 308 314 315 315 315 315 318 321 318 321 323 324 327 328 329 328 327 328 327 325 325 326
304 305 305 304 304 304 303 303 304 305 305 304 304 304 304 304 304 305 306 305 306 310 311 312 314 315 314 316 315 319 319 316 318 319 322 324 326 326 326 326 326 326 325 325
304 304 304 304 305 304 303 304 304 304 304 304 304 304 304 304 304 304 304 305 304 305 306 307 310 313 314 315 316 316 315 318 314 315 315 317 318 321 321 321 321 320 321 319
302 302 303 303 304 304 303 303 303 303 303 304 304 304 304 303 303 303 303 303 304 303 304 305 309 311 313 315 314 315 316 317 316 315 316 316 314 314 315 317 319 319 318 317
303 303 304 305 305 304 304 303 303 303 304 304 303 303 303 303 303 303 303 303 304 303 303 304 306 310 311 312 315 314 313 314 316 316 314 313 314 315 314 314 317 317 316 316
302 303 305 306 304 303 303 303 303 303 303 304 304 303 303 303 303 303 303 303 303 304 303 304 304 308 310 312 312 311 314 312 314 314 314 313 314 313 315 316 317 316 314 312
Wind_Speed
6 7 10 11 14 13 9 7 9 4 5 5 11 10 14 18 17 20 30 30 19 19 20 22 25 34 39 39 38 40 40 39 38 37 35 31 28 24 20 18 18 15 12 9
5 11 14 13 10 11 10 11 10 10 9 6 10 13 14 16 16 19 20 24 30 24 23 25 28 36 41 41 42 42 43 41 42 40 37 34 31 26 22 21 21 17 14 11
12 5 14 10 8 10 11 13 9 11 10 5 9 17 14 15 17 21 27 30 31 37 30 28 33 39 43 43 43 43 44 43 44 42 40 36 32 29 28 26 25 22 17 12
8 8 10 10 12 13 13 13 14 13 7 9 3 9 7 7 10 12 25 28 31 34 35 31 35 39 47 47 44 43 43 45 46 44 41 41 38 39 36 29 28 24 19 15
9 7 10 11 16 16 14 12 15 13 9 5 11 7 7 5 11 14 16 26 27 30 31 37 41 45 45 46 47 46 43 40 50 48 46 42 40 39 33 30 30 26 22 18
5 5 2 7 9 13 4 5 3 1 4 11 13 9 11 9 8 9 12 19 21 22 26 30 42 41 43 44 47 45 43 49 54 51 49 44 42 41 37 33 34 30 25 21
6 2 3 6 6 4 10 7 6 8 8 15 6 9 16 10 8 7 11 15 11 9 17 26 29 34 41 48 52 52 54 54 58 56 52 47 44 40 37 34 37 34 29 24
3 5 6 8 4 4 5 11 10 12 13 14 4 10 7 6 9 10 9 13 12 10 10 14 22 26 32 42 46 53 57 55 58 57 55 49 45 42 39 36 38 35 29 23
3 4 2 4 6 4 3 6 6 8 4 8 9 14 8 10 15 19 19 19 22 21 16 13 15 20 26 33 45 50 57 56 56 60 58 55 48 46 43 38 37 35 28 24
3 6 1 4 3 2 3 3 4 5 12 15 10 10 3 10 13 14 15 21 23 23 22 17 14 18 23 29 41 46 53 57 55 61 62 58 51 46 43 39 38 36 31 26
3 3 2 2 7 5 2 2 1 3 4 10 13 9 2 6 9 11 14 19 22 24 25 24 21 16 22 27 31 42 50 54 56 59 58 53 52 50 45 39 38 35 31 28
4 3 5 3 7 9 3 3 1 4 10 4 7 5 5 5 7 11 15 20 23 23 23 24 23 21 21 28 30 36 44 50 55 58 60 63 55 53 46 40 40 36 32 28
2 2 4 4 4 2 3 3 3 0 0 6 7 5 4 10 11 15 17 21 25 24 26 25 22 18 17 14 23 28 31 39 40 49 55 60 57 54 45 41 39 37 32 28
1 2 4 5 4 3 4 5 3 3 3 4 10 10 11 10 14 19 21 21 20 23 20 22 23 19 13 6 13 21 24 26 36 44 49 55 57 55 45 40 40 37 32 27
1 4 3 8 11 11 13 13 9 10 10 7 10 15 17 17 20 23 17 20 19 19 19 18 20 21 17 8 3 13 17 23 32 39 41 44 51 52 43 41 40 36 32 27
2 4 5 12 14 16 19 17 15 15 15 16 17 24 17 24 19 16 16 15 16 15 14 13 15 18 21 17 5 6 14 21 25 29 31 37 45 50 45 44 41 36 31 29
6 5 4 4 2 4 12 18 19 10 12 13 14 18 11 15 15 17 18 18 20 17 14 11 11 14 18 22 22 7 8 14 19 21 23 28 35 46 47 46 41 36 33 31
10 8 5 5 4 6 3 2 2 15 13 18 19 18 19 21 22 21 22 24 21 17 13 9 8 11 13 17 22 18 4 8 12 16 18 23 33 46 50 45 39 34 33 31
15 10 5 4 8 11 16 10 10 10 21 13 19 20 25 23 20 29 22 20 20 20 16 15 10 11 12 13 18 22 2 2 5 10 16 23 29 41 45 42 37 34 33 32
7 10 6 4 4 5 1 6 8 2 17 6 10 12 15 14 11 13 19 21 23 23 21 20 20 20 18 13 5 15 21 9 3 8 11 17 25 36 37 36 33 34 31 29
4 4 10 10 8 9 10 16 3 11 5 3 5 7 5 6 10 16 17 17 15 18 20 17 18 20 9 10 12 4 11 13 17 4 7 13 21 27 28 28 29 28 27 25
6 4 5 5 7 13 17 7 15 14 10 8 10 10 7 7 11 11 12 15 15 12 11 12 12 10 15 10 11 12 9 3 9 17 15 9 13 17 21 22 23 22 21 17
7 12 5 9 7 10 7 14 13 19 20 22 20 21 22 20 22 20 18 17 16 14 11 11 13 12 12 14 12 11 15 14 11 9 11 8 13 14 14 16 17 12 8 10
7 12 7 9 18 25 36 35 30 35 40 39 36 33 30 32 31 30 26 21 18 17 13 12 10 9 9 15 17 18 18 20 8 10 3 4 2 3 3 2 5 8 9 13
13 10 15 19 24 31 36 36 37 36 35 32 28 26 24 25 28 26 24 23 18 17 16 13 11 12 9 8 15 18 16 16 25 19 14 10 5 6 7 7 12 13 17 18
13 13 6 11 23 20 29 34 32 31 27 26 25 22 21 20 20 18 21 24 21 14 17 15 14 10 11 8 6 10 18 21 19 18 18 21 20 19 16 16 15 15 17 19
Wind_Direction
175 196 213 217 217 234 254 263 262 242 248 284 274 265 274 279 286 272 233 218 218 225 243 234 222 220 215 212 211 209 208 205 203 201 200 201 200 197 194 187 183 181 174 170
164 225 216 222 217 221 234 253 253 279 260 218 276 258 263 266 263 262 254 236 219 224 223 227 221 221 219 219 218 211 211 209 205 207 207 207 204 203 202 195 187 185 186 181
216 205 218 198 200 208 224 232 239 259 292 249 270 272 241 252 234 248 253 251 242 227 224 220 218 224 222 222 222 217 214 211 209 209 212 211 210 209 206 202 193 189 189 184
233 234 202 189 214 207 240 212 235 254 261 273 233 276 251 257 238 236 239 250 241 233 228 226 233 224 223 222 224 223 219 215 214 214 216 215 213 208 209 206 197 194 192 189
224 200 194 217 227 202 247 214 217 241 249 255 235 260 264 237 250 244 243 247 252 241 230 232 229 238 235 225 225 221 221 219 221 216 216 219 216 215 214 207 200 198 196 193
305 311 253 258 250 202 201 184 111 137 222 245 245 242 265 248 252 259 247 251 246 242 238 231 235 234 235 231 232 223 231 223 221 217 219 220 220 216 212 207 203 200 199 198
332 49 3 20 274 177 196 185 229 226 213 245 226 233 257 296 347 345 327 325 335 312 255 247 239 227 228 229 228 227 225 223 220 215 219 221 223 222 218 212 206 204 202 201
343 202 16 350 16 316 240 220 218 233 239 253 165 241 246 40 24 18 9 354 352 347 310 268 248 234 224 233 235 232 230 225 219 217 218 220 222 222 220 217 212 208 209 207
288 242 338 332 338 326 144 224 345 246 271 239 237 241 180 42 29 23 21 15 1 350 340 312 269 244 235 229 235 235 231 230 223 219 216 218 218 220 218 218 214 212 209 207
14 280 69 320 320 65 5 19 205 220 230 235 220 240 245 11 8 5 13 10 1 356 348 333 310 268 241 234 238 238 236 234 230 221 218 218 214 219 218 218 212 209 208 208
354 244 285 268 13 305 295 217 312 282 270 249 244 216 23 7 6 1 1 3 359 354 351 344 331 309 264 238 230 235 237 233 230 225 221 223 217 220 216 215 213 209 208 211
13 290 274 41 117 53 59 65 60 251 214 259 281 198 69 41 15 7 7 1 358 354 352 352 344 330 302 252 228 225 232 236 234 230 220 219 212 220 215 211 210 207 209 213
350 218 284 180 211 200 61 45 19 269 141 238 255 195 64 26 15 6 357 353 355 356 356 358 355 345 335 265 228 225 221 225 220 226 223 219 214 219 214 210 207 207 209 210
195 256 271 294 347 335 279 273 292 271 249 262 248 289 280 319 341 342 347 347 348 354 355 360 4 358 356 332 227 224 220 212 216 223 222 221 214 218 213 208 204 207 207 207
312 282 265 280 289 283 284 271 262 244 249 244 284 284 282 294 308 305 307 336 340 353 351 352 2 7 6 17 285 224 216 211 221 231 233 230 223 215 209 206 205 203 204 205
161 263 268 282 266 267 277 268 250 248 249 260 271 273 282 285 292 284 287 314 333 334 352 345 358 14 15 14 358 243 239 230 228 224 223 224 222 212 201 202 203 201 201 201
237 258 228 261 240 269 272 263 249 235 235 227 249 258 286 284 277 276 287 299 301 310 331 343 344 6 19 22 17 311 233 232 226 220 219 219 220 203 196 198 198 197 200 201
235 227 245 266 227 245 20 275 234 208 238 238 255 262 261 261 271 284 280 280 283 286 287 346 348 336 11 22 19 16 247 216 213 213 209 208 204 197 194 196 196 195 199 198
222 218 227 224 222 287 283 234 225 223 267 263 252 256 262 270 281 274 272 264 266 271 280 262 309 349 351 32 30 34 84 174 189 201 210 210 197 196 192 193 193 195 197 199
167 216 210 184 240 262 359 193 219 234 277 229 251 270 281 275 261 281 289 272 269 269 273 278 254 273 291 315 37 34 48 45 237 192 189 198 204 200 194 192 195 197 197 203
158 168 216 229 249 261 254 247 213 224 272 160 288 299 275 249 263 297 301 306 299 282 277 277 261 250 261 287 293 237 15 55 61 81 176 180 184 190 192 193 197 198 198 204
241 219 218 222 239 263 228 213 221 246 267 240 269 270 262 269 287 301 296 313 318 312 292 278 270 250 235 239 272 247 225 105 87 83 79 131 166 173 178 185 184 189 191 196
249 223 257 225 237 254 220 246 264 267 284 287 274 274 273 268 279 288 294 292 307 310 308 316 278 259 245 227 229 195 171 163 113 81 85 71 84 110 141 148 153 168 184 209
253 253 244 275 252 258 265 261 261 266 268 272 271 270 271 267 265 270 282 277 283 298 301 302 302 273 263 229 224 226 240 240 203 123 128 131 125 213 221 176 173 199 232 250
261 278 252 258 267 272 268 267 270 269 268 267 266 266 261 254 256 261 266 267 269 279 291 284 285 263 276 241 228 235 228 228 226 224 222 233 258 314 297 311 275 262 253 270
267 264 262 278 291 291 281 281 273 262 255 253 263 264 254 255 255 252 255 259 262 264 282 270 263 262 257 261 267 235 234 231 226 216 207 210 208 228 225 218 224 240 254 268